Powrót do katalogu

CZ-4 DEB

AktywnyPO
NORAD 26187·DEBRIS·🇨🇳 China

Wystrzelony Oct 14, 1999 z Taiyuan Satellite Launch Center

Loading…

Następne Przeloty (najbliższe 24 godziny)

TLE

ŚwieżeSource: Space-Track

Epoka: Sep 14, 2026, 11:58 UTC

1 26187U 99057BZ  26257.49905745  .00001598  00000-0  16604-3 0  9992
2 26187  98.5462 334.3255 0046077  34.7756 325.6457 14.90800859427718

Śledź CZ-4 DEB w czasie rzeczywistym z AllMySat

Download on the App Store